Location: Newport
(44.6370°N, 124.0520°W)
Time: 17:01:16
(UTC-07:00)

ISS - Pass Details

Date: 13 October 2017
Orbit: 401 x 408 km, 51.6° (Epoch: 19 October)

Event Time Altitude Azimuth Distance (km) Brightness Sun altitude
Rises 20:22:49 0° 293° (WNW) 2,326 1.5 -20.0°
Reaches altitude 10° 20:25:07 10° 279° (W) 1,464 0.2 -20.4°
Maximum altitude 20:27:51 24° 222° (SW) 876 -1.8 -20.9°
Enters shadow 20:28:40 22° 198° (SSW) 943 -1.9 -21.1°
